Location: Unspecified
(0.0000°N, 0.0000°E)
Time: 13:02:29
(UTC+00:00)

deb OV3-4 - Pass Details

Date: 14 June 2025
Orbit: 581 x 4212 km, 40.6° (Epoch: 19 July)

Event Time Altitude Azimuth Distance (km) Brightness Sun altitude
Rises 17:49:29 0° 327° (NNW) 7,436 ? 2.5°
Reaches altitude 10° 17:57:48 10° 345° (NNW) 6,965 ? 0.6°
Maximum altitude 18:12:42 18° 23° (NNE) 6,684 ? -2.8°
Drops below altitude 10° 18:27:38 10° 60° (ENE) 7,114 ? -6.2°
Sets 18:35:58 0° 77° (ENE) 7,668 ? -8.2°
